Regional Weather Roundup
Issued by NWS Raleigh/Durham, NC

Home | Current Version | Previous Version | Text Only | Print | Product List | Glossary On
Versions: 1 2 3 4 5 6 7 8 9 10 11 12 13 14 15 16 17 18 19 20 21 22 23 24 25 26 27 28 29 30 31 32 33 34 35 36 37 38 39 40 41 42 43 44 45 46 47 48 49 50
121
ASUS42 KRAH 211210
RWRRAH
NORTH CAROLINA WEATHER ROUNDUP
NATIONAL WEATHER SERVICE RALEIGH NC
800 AM EDT TUE MAY 21 2019

NOTE: "FAIR" INDICATES FEW OR NO CLOUDS BELOW 12,000 FEET WITH NO
SIGNIFICANT WEATHER AND/OR OBSTRUCTIONS TO VISIBILITY.

NCZ001-053-055-056-065-067-211300-
WESTERN NORTH CAROLINA

CITY           SKY/WX    TMP DP  RH WIND       PRES   REMARKS
ASHEVILLE      FAIR      61  53  75 CALM      30.08R
JEFFERSON      FAIR      60  47  62 CALM      30.09R
MORGANTON      FAIR      60  57  89 CALM      30.06R
HICKORY        FAIR      62  57  83 CALM      30.01R
WILKESBORO     NOT AVBL
RUTHERFORDTON  FAIR      63  55  77 CALM      30.03R
MOUNT AIRY     FAIR      66  59  80 CALM      30.04R
BOONE          FAIR      60  48  64 CALM      30.10R
$$

NCZ021-022-025-041-071-084-088-211300-
CENTRAL NORTH CAROLINA

CITY           SKY/WX    TMP DP  RH WIND       PRES   REMARKS
CHARLOTTE      FAIR      71  57  61 NE6       29.99S
GREENSBORO     FAIR      68  57  68 N7        30.00S
WINSTON-SALEM  FAIR      69  55  60 NE3       30.02R
RALEIGH-DURHAM FAIR      71  60  68 N7        29.99R
FORT BRAGG     FAIR      73  73  98 CALM      29.96R
FAYETTEVILLE   FAIR      73  71  93 W5        29.97R
BURLINGTON     FAIR      70  58  65 N3        30.00R
ROXBORO        FAIR      64  57  77 N3        30.02S
HENDERSON      FAIR      64  56  73 N5        30.00R
LOUISBURG      FAIR      68  61  77 N6        30.02R
LAURINBURG     FAIR      70  69  97 CALM      29.98R
$$

NCZ011-015-027-028-043-044-047-080-103-211300-
NORTHEASTERN NORTH CAROLINA

CITY           SKY/WX    TMP DP  RH WIND       PRES   REMARKS
ROCKY MT-WILSO FAIR      72  67  84 NW6       29.97R
GREENVILLE     FAIR      75  70  83 NW5       29.98R
WASHINGTON     FAIR      75  69  82 W5        29.96R
ELIZABETH CITY FAIR      75  67  76 NW9       29.95R
MANTEO         PTSUNNY   74  68  81 NW9       29.95R
CAPE HATTERAS  CLOUDY    74  70  87 SW8G17    29.95R
$$

NCZ078-087-090-091-093-098-101-211300-
SOUTHEASTERN NORTH CAROLINA

CITY           SKY/WX    TMP DP  RH WIND       PRES   REMARKS
GOLDSBORO      PTSUNNY   73  71  95 W6        29.96R
KINSTON        PTSUNNY   73  72  94 CALM      29.97R
KENANSVILLE    CLOUDY    73  70  88 W6        29.97R
NEW BERN       CLOUDY    74  71  91 W6        29.97R
CHERRY POINT   PTSUNNY   77  70  79 W12       29.97R
BEAUFORT       PTSUNNY   76  71  85 SW9       29.96R
JACKSONVILLE   FAIR      75  71  87 W9        29.96R
WILMINGTON     PTSUNNY   77  71  82 SW6       29.96R
$$





USA.gov is the U.S. government's official web portal to all federal, state and local government web resources and services.